BEIDOU-2 G8

Last updated on Tue Sep 16 2025 00:02:49 GMT+0000 (Coordinated Universal Time)

1 44231U 19027A 25258.54184909 -.00000263 00000+0 00000+0 0 9995 2 44231 1.4341 74.3373 0006675 260.6393 359.3855 1.00270689 23320
UTC large
Height (km)
Speed (km/s)
/
Latitude / Longitude
Inclination (degrees)
Orbital Period (minutes)
Azimuth
Elevation
Range (km)
Doppler Factor

Next 0 passes for location: London (51.5072 / 0.1276)

Sorry there are no passes over London.